Madison, MN

6:18 AM CDT on July 26, 2017 (GMT -0500)
Madison-Lac Qui Parle County

Weather History for KDXX - November, 2013

Change the Weather History Date:

Saturday, November 30, 2013

  Actual Average (KAQP) Record (KAQP)
Temperature  
Mean Temperature 29 °F -  
Max Temperature 39 °F 31 °F 53 °F (1999)
Min Temperature 19 °F 15 °F 0 °F (2006)
Degree Days  
Heating Degree Days 36    
Moisture  
Dew Point 23 °F    
Average Humidity 76    
Maximum Humidity 93    
Minimum Humidity 56    
Precipitation  
Precipitation 0.00 in - - ()
Sea Level Pressure  
Sea Level Pressure 30.09 in    
Wind  
Wind Speed 6 mph (NW)    
Max Wind Speed 15 mph    
Max Gust Speed 18 mph    
Visibility 10 miles    
Events      
Averages and records for this station are not official NWS values.
T = Trace of Precipitation, MM = Missing Value Source: NWS Daily Summary

Daily Weather History Graph

Daily Weather History Graph

Search for Another Location

Airport or City:

Trip Planner

Search our weather history database for the weather conditions in past years. The results will help you decide how hot, cold, wet, or windy it might be!

Date:

Astronomy

Nov. 30, 2013 Rise Set
Actual Time 7:41 AM CST 4:44 PM CST
Civil Twilight 7:08 AM CST 5:18 PM CST
Nautical Twilight 6:32 AM CST 5:54 PM CST
Astronomical Twilight 5:56 AM CST 6:29 PM CST
Moon 4:48 AM CST (11/30) 3:14 PM CST (11/30)
Length of Visible Light 10h 09m
Length of Day
9h 03m
Waning Crescent, 7% of the Moon is Illuminated
Nov 30
Waning Crescent
Dec 2
New
Dec 9
First Quarter
Dec 17
Full
Dec 25
Last Quarter

Hourly Weather History & Observations

Time (CST) Temp. Windchill Dew Point Humidity Pressure Visibility Wind Dir Wind Speed Gust Speed Precip Events Conditions
12:14 AM 24.8 °F 19.1 °F 19.4 °F 80% 30.02 in 10.0 mi SE 4.6 mph - N/A   Clear
12:34 AM 21.2 °F 13.6 °F 17.6 °F 86% 30.01 in 10.0 mi SE 5.8 mph - N/A   Clear
12:53 AM 32.0 °F 28.7 °F 19.4 °F 60% 30.01 in 10.0 mi SE 3.5 mph - N/A   Clear
1:14 AM 21.2 °F 13.6 °F 17.6 °F 86% 29.99 in 10.0 mi South 5.8 mph - N/A   Clear
1:34 AM 21.2 °F - 17.6 °F 86% 29.99 in 10.0 mi Calm Calm - N/A   Clear
1:53 AM 23.0 °F - 19.4 °F 86% 29.99 in 10.0 mi Calm Calm - N/A   Clear
2:14 AM 21.2 °F - 17.6 °F 86% 30.01 in 10.0 mi Calm Calm - N/A   Clear
2:33 AM 21.2 °F - 17.6 °F 86% 30.01 in 10.0 mi Calm Calm - N/A   Clear
2:54 AM 21.2 °F - 17.6 °F 86% 30.01 in 10.0 mi Calm Calm - N/A   Clear
3:14 AM 21.2 °F 14.9 °F 17.6 °F 86% 30.01 in 10.0 mi SW 4.6 mph - N/A   Clear
3:33 AM 21.2 °F 16.4 °F 17.6 °F 86% 30.01 in 10.0 mi WSW 3.5 mph - N/A   Clear
3:54 AM 19.4 °F 12.8 °F 17.6 °F 93% 30.01 in 10.0 mi WSW 4.6 mph - N/A   Clear
4:14 AM 21.2 °F 16.4 °F 17.6 °F 86% 30.01 in 10.0 mi West 3.5 mph - N/A   Clear
4:33 AM 21.2 °F 14.9 °F 17.6 °F 86% 30.02 in 10.0 mi West 4.6 mph - N/A   Unknown
4:54 AM 21.2 °F 13.6 °F 19.4 °F 93% 30.02 in 10.0 mi West 5.8 mph - N/A   Unknown
5:14 AM 21.2 °F 13.6 °F 19.4 °F 93% 30.03 in 10.0 mi West 5.8 mph - N/A   Unknown
5:33 AM 21.2 °F 13.6 °F 19.4 °F 93% 30.02 in 10.0 mi West 5.8 mph - N/A   Clear
5:54 AM 21.2 °F 12.6 °F 19.4 °F 93% 30.03 in 10.0 mi West 6.9 mph - N/A   Clear
6:14 AM 23.0 °F 14.7 °F 21.2 °F 93% 30.03 in 10.0 mi West 6.9 mph - N/A   Clear
6:33 AM 24.8 °F 17.9 °F 21.2 °F 86% 30.04 in 10.0 mi West 5.8 mph - N/A   Clear
6:54 AM 21.2 °F 13.6 °F 17.6 °F 86% 30.04 in 10.0 mi West 5.8 mph - N/A   Clear
7:13 AM 23.0 °F 13.9 °F 21.2 °F 93% 30.05 in 10.0 mi West 8.1 mph - N/A   Clear
7:34 AM 24.8 °F 16.1 °F 21.2 °F 86% 30.06 in 10.0 mi WNW 8.1 mph - N/A   Clear
7:54 AM 24.8 °F 16.1 °F 21.2 °F 86% 30.07 in 10.0 mi NW 8.1 mph - N/A   Clear
8:13 AM 26.6 °F 17.5 °F 23.0 °F 86% 30.07 in 10.0 mi NW 9.2 mph - N/A   Clear
8:34 AM 30.2 °F 21.3 °F 24.8 °F 80% 30.08 in 10.0 mi NW 10.4 mph - N/A   Clear
8:54 AM 30.2 °F 21.9 °F 24.8 °F 80% 30.08 in 10.0 mi NW 9.2 mph - N/A   Clear
9:13 AM 30.2 °F 23.4 °F 26.6 °F 86% 30.08 in 10.0 mi NW 6.9 mph - N/A   Clear
9:34 AM 33.8 °F 25.8 °F 26.6 °F 75% 30.08 in 10.0 mi NNW 10.4 mph - N/A   Clear
9:54 AM 33.8 °F 25.8 °F 26.6 °F 75% 30.09 in 10.0 mi NNW 10.4 mph - N/A   Clear
10:13 AM 33.8 °F 25.3 °F 26.6 °F 75% 30.09 in 10.0 mi NNW 11.5 mph - N/A   Clear
10:34 AM 33.8 °F 24.8 °F 24.8 °F 70% 30.10 in 10.0 mi NNW 12.7 mph - N/A   Clear
10:54 AM 33.8 °F 24.8 °F 24.8 °F 70% 30.11 in 10.0 mi NNW 12.7 mph - N/A   Clear
11:13 AM 35.6 °F 26.2 °F 24.8 °F 65% 30.10 in 10.0 mi NNW 15.0 mph 18.4 mph N/A   Clear
11:34 AM 35.6 °F 27.1 °F 24.8 °F 65% 30.10 in 10.0 mi NNW 12.7 mph 18.4 mph N/A   Clear
11:54 AM 35.6 °F 27.5 °F 24.8 °F 65% 30.09 in 10.0 mi NW 11.5 mph - N/A   Scattered Clouds
12:13 PM 37.4 °F 30.3 °F 26.6 °F 65% 30.10 in 10.0 mi NW 10.4 mph - N/A   Mostly Cloudy
12:34 PM 37.4 °F 29.3 °F 24.8 °F 60% 30.10 in 10.0 mi NNW 12.7 mph - N/A   Mostly Cloudy
12:53 PM 37.4 °F 29.8 °F 24.8 °F 60% 30.11 in 10.0 mi NW 11.5 mph 17.3 mph N/A   Mostly Cloudy
1:13 PM 37.4 °F 29.3 °F 26.6 °F 65% 30.10 in 10.0 mi NW 12.7 mph - N/A   Scattered Clouds
1:34 PM 37.4 °F 28.9 °F 24.8 °F 60% 30.10 in 10.0 mi NNW 13.8 mph - N/A   Scattered Clouds
1:53 PM 39.2 °F 31.6 °F 24.8 °F 56% 30.09 in 10.0 mi NNW 12.7 mph 16.1 mph N/A   Clear
2:13 PM 39.2 °F 31.2 °F 24.8 °F 56% 30.10 in 10.0 mi NNW 13.8 mph - N/A   Clear
2:34 PM 39.2 °F 32.5 °F 24.8 °F 56% 30.09 in 10.0 mi NNW 10.4 mph - N/A   Scattered Clouds
2:53 PM 37.4 °F 29.3 °F 24.8 °F 60% 30.10 in 10.0 mi NNW 12.7 mph 16.1 mph N/A   Clear
3:14 PM 37.4 °F 28.9 °F 24.8 °F 60% 30.11 in 10.0 mi NNW 13.8 mph - N/A   Scattered Clouds
3:33 PM 37.4 °F 29.3 °F 24.8 °F 60% 30.11 in 10.0 mi NW 12.7 mph - N/A   Clear
3:54 PM 35.6 °F 28.0 °F 24.8 °F 65% 30.11 in 10.0 mi NNW 10.4 mph - N/A   Clear
4:14 PM 35.6 °F 28.0 °F 24.8 °F 65% 30.12 in 10.0 mi NNW 10.4 mph - N/A   Clear
4:33 PM 35.6 °F 27.5 °F 24.8 °F 65% 30.13 in 10.0 mi NNW 11.5 mph - N/A   Clear
4:54 PM 35.6 °F 28.0 °F 24.8 °F 65% 30.13 in 10.0 mi NNW 10.4 mph - N/A   Clear
5:14 PM 33.8 °F 27.7 °F 24.8 °F 70% 30.14 in 10.0 mi NNW 6.9 mph - N/A   Clear
5:33 PM 33.8 °F 26.4 °F 24.8 °F 70% 30.14 in 10.0 mi NNW 9.2 mph - N/A   Scattered Clouds
5:54 PM 33.8 °F 27.7 °F 24.8 °F 70% 30.14 in 10.0 mi NNW 6.9 mph - N/A   Clear
6:13 PM 33.8 °F 26.4 °F 24.8 °F 70% 30.15 in 10.0 mi NNW 9.2 mph - N/A   Scattered Clouds
6:33 PM 33.8 °F 27.7 °F 26.6 °F 75% 30.15 in 10.0 mi NNW 6.9 mph - N/A   Clear
6:54 PM 33.8 °F 27.7 °F 26.6 °F 75% 30.16 in 10.0 mi NNW 6.9 mph - N/A   Clear
7:13 PM 33.8 °F 27.7 °F 24.8 °F 70% 30.15 in 10.0 mi North 6.9 mph - N/A   Clear
7:33 PM 32.0 °F 26.4 °F 24.8 °F 75% 30.16 in 10.0 mi North 5.8 mph - N/A   Clear
7:54 PM 32.0 °F 26.4 °F 24.8 °F 75% 30.16 in 10.0 mi North 5.8 mph - N/A   Clear
8:13 PM 30.2 °F 25.4 °F 24.8 °F 80% 30.17 in 10.0 mi North 4.6 mph - N/A   Clear
8:33 PM 30.2 °F 24.3 °F 23.0 °F 75% 30.16 in 10.0 mi NNE 5.8 mph - N/A   Clear
8:54 PM 30.2 °F 23.4 °F 23.0 °F 75% 30.17 in 10.0 mi North 6.9 mph - N/A   Clear
9:13 PM 30.2 °F 23.4 °F 23.0 °F 75% 30.18 in 10.0 mi North 6.9 mph - N/A   Scattered Clouds
9:34 PM 28.4 °F 23.3 °F 23.0 °F 80% 30.18 in 10.0 mi North 4.6 mph - N/A   Mostly Cloudy
9:54 PM 28.4 °F 21.2 °F 23.0 °F 80% 30.18 in 10.0 mi North 6.9 mph - N/A   Scattered Clouds
10:13 PM 28.4 °F 21.2 °F 23.0 °F 80% 30.18 in 10.0 mi North 6.9 mph - N/A   Clear
10:34 PM 28.4 °F 22.2 °F 21.2 °F 74% 30.19 in 7.0 mi North 5.8 mph - N/A   Clear
10:54 PM 26.6 °F 20.0 °F 21.2 °F 80% 30.20 in 7.0 mi North 5.8 mph - N/A   Scattered Clouds
11:13 PM 26.6 °F 21.2 °F 21.2 °F 80% 30.20 in 7.0 mi NNW 4.6 mph - N/A   Scattered Clouds
11:34 PM 26.6 °F 22.6 °F 21.2 °F 80% 30.20 in 7.0 mi North 3.5 mph - N/A   Mostly Cloudy
11:54 PM 26.6 °F 22.6 °F 23.0 °F 86% 30.21 in 7.0 mi NNW 3.5 mph - N/A   Overcast